Location: Pilipovskiye Korichintsy
(49.1833°N, 27.4667°E)
Time: 21:51:07
(UTC+00:00)

Landsat 5 - Pass Details

Date: 14 July 2020
Orbit: 529 x 654 km, 98.2° (Epoch: 10 August)

Event Time Altitude Azimuth Distance (km) Brightness Sun altitude
Rises 01:31:35 0° 163° (SSE) 2,715 6.6 -6.9°
Reaches altitude 10° 01:33:43 10° 163° (SSE) 1,811 5.7 -6.7°
Maximum altitude 01:37:37 87° 78° (ENE) 544 3.3 -6.2°
Drops below altitude 10° 01:41:29 10° 346° (NNW) 1,792 6.4 -5.8°
Sets 01:43:35 0° 347° (NNW) 2,684 7.3 -5.5°
